Location: Proctor
(47.8934°N, 114.3048°W)
Time: 18:27:06
(UTC+00:00)

Transit 4A - Pass Details

Date: 19 May 2025
Orbit: 866 x 975 km, 66.8° (Epoch: 13 June)

Event Time Altitude Azimuth Distance (km) Brightness Sun altitude
Rises 07:58:14 0° 320° (NW) 3,621 11.6 -22.0°
Reaches altitude 10° 08:01:55 10° 341° (NNW) 2,652 11.2 -22.0°
Maximum altitude 08:05:40 16° 19° (NNE) 2,203 10.8 -21.9°
Drops below altitude 10° 08:09:21 10° 57° (ENE) 2,601 10.8 -21.8°
Sets 08:12:54 0° 79° (ENE) 3,517 11.2 -21.7°
